EHI
0 0 0 0 0 0 0 0 0 0 0 0 0 0 0 0 0 0 0 0 0 0 0 0 0 0 0 0 0 0 0 0 0 0 0 0 0 0
0 0 0 0 0 0 0 0 0 0 0 0 0 0 0 0 0 0 0 0 0 0 0 0 0 0 0 0 0 0 0 0 0 0 0 0 0 0
0 0 0 0 0 0 0 0 0 0 0 0 0 0 0 0 0 0 0 0 0 0 0 0 0 0 0 0 0 0 0 0 0 0 0 0 0 0
0 0 0 0 0 0 0 0 0 0 0 0 0 0 0 0 0 0 0 0 0 0 0 0 0 0 0 0 0 0 0 0 0 0 0 0 0 0
0 0 0 0 0 0 0 0 0 0 0 0 0 0 0 0 0 0 0 0 0 0 0 0 0 0 0 0 0 0 0 0 0 0 0 0 0 0
0 0 0 0 0 0 0 0 0 0 0 0 0 0 0 0 0 0 0 0 0 0 0 0 0 0 0 0 0 0 0 0 0 0 0 0 0 0
0 0 0 0 0 0 0 0 0 0 0 0 0 0 0 0 0 0 0 0 0 0 0 0 0 0 0 0 0 0 0 0 0 0 0 0 0 0
0 0 0 0 0 0 0 0 0 0 0 0 0 0 0 0 0 0 0 0 0 0 0 0 0 0 0 0 0 0 0 0 0 0 0 0 0 0
0 0 0 0 0 0 0 0 0 0 0 0 0 0 0 0 0 0 0 0 0 0 0 0 0 0 0 0 0 0 0 0 0 0 0 0 0 0
0 0 0 0 0 0 0 0 0 0 0 0 0 0 0 0 0 0 0 0 0 0 0 0 0 0 0 0 0 0 0 0 0 0 0 0 0 0
0 0 0 0 0 0 0 0 0 0 0 0 0 0 0 0 0 0 0 0 0 0 0 0 0 0 0 0 0 0 0 0 0 0 0 0 0 0
0 0 0 0 0 0 0 0 0 0 0 0 0 0 0 0 0 0 0 0 0 0 0 0 0 0 0 0 0 0 0 0 0 0 0 0 0 0
0 0 0 0 0 0 0 0 0 0 0 0 0 0 0 0 0 0 0 0 0 0 0 0 0 0 0 0 0 0 0 0 0 0 0 0 0 0
0 0 0 0 0 0 0 0 0 0 0 0 0 0 0 0 0 0 0 0 0 0 0 0 0 0 0 0 0 0 0 0 0 0 0 0 0 0
0 0 0 0 0 0 0 0 0 0 0 0 0 0 0 0 0 0 0 0 0 0 0 0 0 0 0 0 0 0 0 0 0 0 0 0 0 0
0 0 0 0 0 0 0 0 0 0 0 0 0 0 0 0 0 0 0 0 0 0 0 0 0 0 0 0 0 0 0 0 0 0 0 0 0 0
0 0 0 0 0 0 0 0 0 0 0 0 0 0 0 0 0 0 0 0 0 0 0 0 0 0 0 0 0 0 0 0 0 0 0 0 0 0
0 0 0 0 0 0 0 0 0 0 0 0 0 0 0 0 0 0 0 0 0 0 0 0 0 0 0 0 0 0 0 0 0 0 0 0 0 0
0 0 0 0 0 0 0 0 0 0 0 0 0 0 0 0 0 0 0 0 0 0 0 0 0 0 0 0 0 0 0 0 0 0 0 0 0 0
0 0 0 0 0 0 0 0 0 0 0 0 0 0 0 0 0 0 0 0 0 0 0 0 0 0 0 0 0 0 0 0 0 0 0 0 0 0
0 0 0 0 0 0 0 0 0 0 0 0 0 0 0 0 0 0 0 0 0 0 0 0 0 0 0 0 0 0 0 0 0 0 0 0 0 0
0 0 0 0 0 0 0 0 0 0 0 0 0 0 0 0 0 0 0 0 0 0 0 0 0 0 0 0 0 0 0 0 0 0 0 0 0 0
0 0 0 0 0 0 0 0 0 0 0 0 0 0 0 0 0 0 0 0 0 0 0 0 0 0 0 0 0 0 0 0 0 0 0 0 0 0
Wind_Speed
5 5 3 3 4 5 5 6 9 17 15 6 5 5 5 5 13 10 8 19 29 30 31 31 32 32 32 31 31 32 32 32 32 32 32 32 31 31
4 4 4 4 5 5 5 6 7 11 16 9 7 6 7 10 17 11 9 26 27 29 31 32 32 32 32 32 33 33 34 34 34 33 33 33 32 32
5 5 6 6 6 6 6 7 7 8 14 15 11 8 8 9 11 8 9 9 12 26 31 33 34 34 34 33 34 34 34 34 33 33 32 32 32 32
6 6 6 7 8 8 7 8 9 9 11 16 14 10 11 11 10 8 10 12 10 24 32 33 33 33 33 33 33 33 33 32 32 32 33 33 32 32
6 6 6 7 9 9 10 10 9 10 8 12 15 13 11 9 9 10 12 10 13 18 24 26 29 31 32 33 33 32 32 32 32 32 32 32 32 33
6 6 7 8 10 11 10 9 9 11 10 12 13 13 11 7 8 11 14 8 10 12 18 21 25 29 31 32 32 32 32 32 31 31 31 31 31 32
6 7 8 14 19 16 14 12 12 12 12 13 14 13 10 9 10 10 15 13 10 9 10 10 11 11 14 22 27 30 31 31 31 31 31 31 30 30
8 8 9 12 17 23 26 26 24 18 16 15 14 14 14 12 12 13 15 16 14 6 9 13 10 12 11 10 23 31 32 32 32 32 32 32 32 31
8 9 11 12 18 12 19 24 21 27 25 17 15 14 16 15 16 17 15 16 17 13 12 16 10 12 12 15 29 32 33 33 33 33 33 32 32 32
9 10 10 11 13 19 16 14 13 12 15 13 12 13 14 13 13 16 16 16 14 11 10 15 13 12 14 12 25 32 33 33 32 32 31 31 30 30
9 9 12 11 22 29 20 16 13 11 18 24 25 24 28 28 22 13 12 12 14 13 8 10 13 13 13 13 17 27 29 29 30 30 30 30 29 27
7 8 15 21 27 28 17 12 14 15 14 14 16 19 17 17 22 14 12 13 14 12 8 7 11 11 10 8 8 9 13 22 29 31 31 30 29 18
10 8 9 25 27 27 23 12 19 20 12 13 13 12 12 10 11 12 12 12 13 13 11 10 11 11 11 11 8 8 10 11 13 17 23 28 28 23
10 9 12 25 27 26 19 21 26 21 11 11 11 11 11 11 11 13 14 14 14 17 17 16 12 12 12 13 11 8 8 10 11 13 12 18 21 26
10 19 23 25 23 16 20 24 19 11 11 11 12 12 10 11 12 12 13 13 14 14 14 14 13 11 10 11 10 10 11 11 9 10 11 11 10 10
10 13 20 20 17 18 17 14 10 10 12 11 12 12 11 10 11 11 12 12 12 11 9 9 11 11 9 9 9 12 11 10 11 12 11 8 7 7
13 6 7 10 10 10 10 10 10 11 11 11 12 12 12 12 12 11 10 11 11 11 11 8 8 8 7 7 7 10 11 10 10 9 7 6 5 4
15 9 10 10 11 12 12 12 12 11 11 12 12 12 12 12 13 11 10 10 11 11 10 9 9 7 5 4 7 9 9 8 9 9 8 7 9 9
9 9 10 11 11 11 11 11 12 12 11 11 11 12 11 11 11 11 11 10 10 10 9 8 7 5 6 7 9 12 10 8 9 10 10 8 9 11
8 9 10 11 11 11 11 11 12 12 11 11 12 11 11 11 11 11 10 11 10 9 8 7 7 6 5 5 6 8 15 12 9 10 10 9 10 14
10 10 10 11 11 11 11 11 12 12 12 12 11 11 11 11 11 10 9 14 11 7 8 7 7 12 6 4 4 6 9 17 19 13 11 9 10 15
11 11 11 11 11 11 11 11 11 12 12 11 11 11 10 10 11 11 9 8 8 7 6 6 7 7 6 6 7 7 9 10 15 25 27 23 13 12
11 11 11 11 11 10 10 11 13 12 12 11 11 11 11 11 10 8 7 7 6 6 5 5 6 5 6 5 5 6 9 10 9 12 16 26 29 28
Wind_Direction
293 294 290 286 288 283 282 285 296 304 302 290 279 242 246 257 282 286 270 290 297 298 299 298 294 290 288 288 290 290 288 287 285 285 283 280 278 276
295 300 297 290 288 288 285 281 277 285 294 298 289 272 269 286 292 289 278 293 297 298 297 296 293 291 289 289 289 290 288 286 284 282 281 279 278 276
297 301 293 295 298 297 292 287 281 278 287 296 295 290 279 274 282 267 272 272 280 292 296 294 291 290 289 289 290 289 286 284 282 282 281 281 278 276
290 291 291 308 307 302 296 287 284 276 279 291 298 298 290 285 286 283 293 292 285 291 293 293 293 292 291 291 289 287 286 285 284 283 281 279 278 277
283 282 286 301 305 299 294 289 286 291 285 290 294 294 290 293 298 294 288 284 290 293 296 296 293 292 291 290 290 290 289 287 284 280 277 276 275 274
276 271 277 289 295 296 296 291 299 299 292 290 292 294 292 292 292 300 302 287 286 290 290 290 291 292 291 292 291 289 287 284 280 277 274 273 272 272
282 273 279 302 308 308 309 310 304 299 301 301 300 299 301 305 303 300 299 298 285 280 283 282 283 279 281 283 285 284 282 280 277 276 277 277 275 273
304 298 296 304 305 313 312 308 307 307 306 303 303 304 306 303 301 299 300 301 298 286 281 288 282 279 277 271 277 280 281 281 280 278 277 276 274 272
311 307 310 312 314 297 297 305 307 305 306 306 304 302 302 304 303 301 299 297 295 298 294 291 282 279 278 279 284 284 283 282 279 277 274 271 268 266
303 299 299 301 305 308 308 308 302 305 305 303 294 296 301 300 297 299 297 295 290 285 280 286 288 284 284 280 283 282 281 280 278 276 273 270 266 262
295 298 308 306 308 316 319 315 316 308 310 310 311 310 309 309 308 305 301 299 297 294 283 278 285 287 283 278 276 280 282 282 282 280 277 273 268 262
300 293 310 316 317 323 325 323 318 312 315 318 314 309 305 301 306 305 299 295 294 294 285 273 285 292 288 264 258 267 275 279 280 280 277 271 266 259
319 316 311 320 325 329 330 322 312 320 324 316 309 306 305 304 303 300 296 291 290 287 289 291 288 289 285 291 284 270 269 272 276 275 274 268 261 251
317 313 315 326 331 331 328 319 324 329 318 310 309 310 310 307 305 302 296 291 283 283 287 288 286 290 294 294 297 292 285 278 275 272 265 262 257 247
315 320 327 331 331 327 320 325 329 321 313 313 312 310 305 300 302 302 298 293 287 282 281 282 287 291 288 289 292 292 302 298 286 279 275 264 250 237
319 324 331 329 327 323 323 324 320 315 318 314 311 307 307 306 307 307 307 309 305 303 290 283 291 295 293 283 282 288 296 293 298 297 290 279 264 243
333 329 324 325 324 322 321 320 320 321 319 315 312 312 312 312 311 311 307 308 308 311 318 317 310 301 275 262 284 294 304 306 302 307 309 317 319 319
340 330 325 323 321 321 321 320 320 319 317 315 312 311 311 312 312 312 312 313 315 317 319 319 325 328 325 285 269 307 321 326 331 339 344 349 358 354
338 325 322 320 318 317 315 315 315 314 312 310 309 310 309 310 311 313 316 319 319 320 322 323 330 332 338 337 324 334 347 348 351 357 0 1 3 2
329 323 319 316 314 313 313 312 311 311 311 310 309 308 308 310 312 313 316 320 322 324 325 331 338 341 330 315 311 322 356 12 6 3 358 4 14 17
326 320 315 312 311 311 310 309 308 308 307 307 306 307 308 310 310 310 314 321 326 326 329 333 328 336 328 326 351 1 6 24 37 29 10 6 22 33
321 316 312 309 309 308 308 307 307 306 306 305 304 306 306 308 307 308 314 318 321 323 318 320 329 343 359 15 17 11 17 26 35 41 44 44 42 41
317 313 310 308 306 305 305 305 304 302 301 300 300 302 305 305 303 306 311 314 319 324 326 334 343 353 1 7 13 18 24 27 33 44 48 49 58 62